User: anonymous   Login
Location: Unspecified
(0.0000°N, 0.0000°E)
Time: 21:56:03
(UTC+00:00)
Language:

STARLINK-35516 - Orbit

View from above orbital plane
View from above orbital plane
View from above satellite
View from above satellite

Ground track
Ground track

The orbit is defined by the following mean orbital elements,

1 65918U          26145.32891950 +.00000000 +00000-0 +41351-3 0 00004
2 65918  53.1597 169.5729 0001176  83.3842 276.7292 15.30184002    02
Epoch (UTC): 25 May 2026 07:53:38
Eccentricity: 0.0001176
inclination: 53.1597°
perigee height: 474 km
apogee height: 476 km
right ascension of ascending node: 169.5729°
argument of perigee: 83.3842°
revolutions per day: 15.30184002
mean anomaly at epoch: 276.7292°

The dashed part of the orbit path shows where the satellite is in the earth's shadow,  

DLR